Regional Weather Roundup
Issued by NWS Spokane, WA

Home | Current Version | Previous Version | Text Only | Print | Product List | Glossary On
Versions: 1 2 3 4 5 6 7 8 9 10 11 12 13 14 15 16 17 18 19 20 21 22 23 24 25 26 27 28 29 30 31 32 33 34 35 36 37 38 39 40 41 42 43 44 45 46 47 48 49 50
000
NZUS01 KOTX 272110
RWROTX
EASTERN WASHINGTON/NORTHERN IDAHO ROUNDUP
NATIONAL WEATHER SERVICE, SPOKANE WA
100 PM PST SAT DEC 27 2014

Note: "fair" indicated few or no clouds below 12,000 feet with no
significant weather and/or obstructions to visibility.

...NORTHEAST WASHINGTON AND NORTHERN IDAHO PANHANDLE...

CITY           SKY/WX    TMP DP  RH WIND       PRES   REMARKS
SPOKANE INTL   LGT SNOW  33  32  96 S9        30.00F VSB 3/4 WCI  25
SPOKANE DOWNTO LGT SNOW  34  31  88 NE3       30.03F VSB 3/4
COEUR D ALENE  CLOUDY    32  28  86 S8        30.02F WCI  25
DEER PARK      SNOW      32  31  96 SE6       30.02F VSB 1/2 WCI  26
SANDPOINT      LGT SNOW  32  32 100 SW3       30.04F

...SOUTHEAST WASHINGTON AND SOUTHERN IDAHO PANHANDLE...

CITY           SKY/WX    TMP DP  RH WIND       PRES   REMARKS
WALLA WALLA    RAIN      42  36  79 SW18      30.12F
PULLMAN/MOSCOW LGT SNOW  31  28  89 SE13      30.08F VSB 1   WCI  21
LEWISTON       CLOUDY    36  29  75 VRB3      30.11F
LOWELL           N/A     33  31  92 CALM      30.21F

...COLUMBIA BASIN...

CITY           SKY/WX    TMP DP  RH WIND       PRES   REMARKS
EPHRATA        MOSUNNY   36  31  82 S5        29.98F
MOSES LAKE     PTSUNNY   39  34  82 S15       30.00F
TRI CITIES     CLOUDY    44  34  67 S16       30.10F
HERMISTON      LGT RAIN  41  37  86 CALM      30.12F
PENDLETON      LGT RAIN  39  34  82 S15       30.11F

...EAST SLOPES CASCADES...

CITY           SKY/WX    TMP DP  RH WIND       PRES   REMARKS
THE DALLES     CLOUDY    42  36  79 CALM      30.13F
YAKIMA         PTSUNNY   38  29  70 S3        30.04F
ELLENSBURG     CLOUDY    40  29  64 VRB5      30.00F
WENATCHEE      SUNNY     35  28  75 E3        29.99F
OMAK           CLOUDY    33  27  78 SE3       30.00F

...SOUTHERN BRITISH COLUMBIA...

CITY           SKY/WX    TMP DP  RH WIND       PRES   REMARKS

...WESTERN MONTANA...

CITY           SKY/WX    TMP DP  RH WIND       PRES   REMARKS
MISSOULA       CLOUDY    27  23  85 W6        30.08F WCI  20

...NEIGHBORING CITIES...

CITY           SKY/WX    TMP DP  RH WIND       PRES   REMARKS
SEATTLE        CLOUDY    47  44  90 S18G25    30.05F



USA.gov is the U.S. government's official web portal to all federal, state and local government web resources and services.